Погода в Мондах

Россия / Республика Бурятия     51°40′32″N   100°59′46″E
темп.,
°C
ветер,
м/с
пор.,
м/с
влажн.,
%
обл.,
%
осадки,
мм/ч
давл.,
гПа
погр.,
м
26 января, ср
ср2623:00−27ссз339122 0.0 104216
02:00−27сз339123 0.0 104218
05:00−27сз339026 0.0 104220
08:00−25сз338584 0.0 104025
11:00−21зсз338050 0.0 103770
14:00−17з227411 0.0 1032198
17:00−20зсз22887 0.0 103519
20:00−25ссз338310 0.0 104016
27 января, чт
чт2723:00−25сз33837 0.0 104118
02:00−25сз3383100 0.0 104019
05:00−24сз3282100 0.0 103920
08:00−23сз3282100 0.0 103825
11:00−18зсз2274100 0.0 103455
14:00−16зюз1173100 0.0 1031151
17:00−17зюз1188100 0.0 103212
20:00−19с2193100 0.0 10369
28 января, пт
пт2823:00−21ссв2296100 0.0 10389
02:00−22ссв2294100 0.0 103810
05:00−23ссв2292100 0.0 103911
08:00−24ссв3293100 0.0 104111
11:00−20всв1293100 0.0 1037119
14:00−18в2287100 0.0 1034333
17:00−20в229899 0.0 103631
20:00−25ссв229892 0.0 104110
29 января, сб
сб2923:00−27с329464 0.0 104311
02:00−27с329356 0.0 104212
05:00−26с329396 0.0 104112
08:00−26с329149 0.0 104111
11:00−21ссв118671 0.0 103740
14:00−18ююв117747 0.0 1033299
17:00−21юв019681 0.0 10359
20:00−26с329083 0.0 104212
30 января, вс
вс3023:00−25с328969 0.0 104213
02:00−26с338872 0.0 104314
05:00−26с328574 0.0 104314
08:00−26с338388 0.0 104316
11:00−21ссз227765 0.0 104049
14:00−17з016650 0.0 1036273
17:00−20зюз118953 0.0 103810
20:00−26ссз32845 0.0 104411